Время (UTC), дата Ветер
(°,м/с) 
Видим.   Явления Облачность Т
(°С)
Тd
(°С)
f(%) Тe
(°С)
Pmin
(гПа)
dP
(гПа)
Po
(мм)
O2
(г/м3)
Тmin Tmax R s Состояние
почвы
00 19.05.16 320 (СЗ) 1000 м  дымка{ливн. осадки}  10/8 100 м кучево-дожд., средняя 
[Cb calv|Ac und]
+13.4 +12.6 95 +19  1008.9  -0.3  717  273           
03 19.05.16 290 (З) 10 км  слаб. ливневой дождь  10/8 200 м кучево-дожд., средняя 
[Cb calv|Ac und]
+13.1 +12.1 94 +18  1009.2  0.3  718  273  +13.1      влажная 
06 19.05.16 270 (З) 20000 м  {ливн. осадки}  10/5 300 м кучево-дожд., средняя 
[Cb calv|Ac und]
+13.9 +11.8 87 +18  1010.3  1.2  719  273           
09 19.05.16 270 (З) 6{10}  20000 м  в посл. час ливневой дождь  10/8 300 м кучево-дожд., средняя 
[Cb calv|Ac und]
+15.1 +12.5 84 +20  1011.7  1.6  720  272           
12 19.05.16 280 (З) 8-12{13}  20000 м  {ливн. осадки}  6/4 600 м кучево-дожд., средняя 
[Cb calv|Ac trans]
+18.1 +9.5 57 +19  1011.3  720  270           
15 19.05.16 280 (З) 7-12{13}  20000 м    4/1 600 м средняя, верхняя 
[Cu hum|Ac trans|Ci fib]
+17 +7.3 53 +17  1012.4  0.8  720  272    +18.6  0.5     
18 19.05.16 280 (З) 5{12}  20000 м    3/0 верхняя 
[Ci fib]
+13.5 +8 69 +13  1014.7  1.6  722  276           
21 19.05.16 280 (З) 4{10}  20000 м    3/0 средняя 
[Ac trans]
+11.2 +7.5 78 +10  1016.2  0.9  722  278           
00 20.05.16 280 (З) 20000 м    1/0 средняя 
[Ac trans]
+9.3 +5.9 79 +8  1017  0.4  723  281           
03 20.05.16 250 (З) 20000 м    1/0 средняя 
[Ac trans]
+10.2 +5.9 75 +9  1018.1  1.2  723  280  +8.3        влажная 
06 20.05.16 270 (З) 20000 м    3/3 600 м 
[Sc]
+14.3 +7.3 63 +14  1017.9  0.5  724  276           
09 20.05.16 290 (З) 20000 м    5/5 600 м 
[Cu med, cong]
+17.6 +6.3 47 +18  1017.5  0.2  724  273           
12 20.05.16 270 (З) 3{10}  20000 м    8/8 1000 м 
[Cu hum]
+18 +5.1 43 +19  1017.5  0.1  724  273           
15 20.05.16 280 (З) 20000 м    8/0 средняя 
[Ac trans]
+16.7 +5.4 47 +18  1017.9  0.2  724  274    +18.8       
18 20.05.16 тихо ()   20000 м    8/0 средняя 
[Ac trans]
+14.9 +6.8 58 +15  1018.9  0.7  725  276           
21 20.05.16 320 (СЗ) 20000 м    8/0 средняя 
[Ac trans]
+14.4 +6.8 60 +15  1018.9  0.1  725  276           
00 21.05.16 200 (Ю) 20000 м    8/0 средняя 
[Ac trans]
+12.7 +7.9 73 +13  1019  -0.2  724  278           
03 21.05.16 220 (ЮЗ) 20000 м    6/0 средняя 
[Ac trans]
+12.8 +9 78 +15  1019.3  0.3  725  277  +11.4        сухая 
06 21.05.16 130 (ЮВ) 20000 м    4/3 600 м средняя 
[Cu hum|Ac trans]
+17.5 +9.6 60 +20  1018.8  0.3  725  273           
09 21.05.16 080 (В) 20000 м  гроза без осадков{ливн. осадки}  8/5 600 м кучево-дожд., средняя 
[Cb calv|Ac trans]
+17.4 +11.1 66 +21  1018.4  -0.4  725  272           
12 21.05.16 330 (СЗ) 20000 м  {гроза}  6/6 600 м 
[Cu med, cong]
+20.3 +7.5 44 +20  1017.1  -0.8  724  270           
15 21.05.16 360 (С) 20000 м    8/8 1000 м кучево-дожд. 
[Cb calv]
+19 +8.2 49 +20  1017.5  0.2  724  271    +20.9     
18 21.05.16 020 (С) 20000 м    8/4 1000 м кучево-дожд., средняя 
[Cb calv|Ac trans]
+15.8 +9.5 66 +17  1018.8  0.7  725  274           
21 21.05.16 040 (СВ) 20000 м    3/0 средняя 
[Ac trans]
+13.6 +9.1 74 +16  1018.3  -0.9  724  276           
00 22.05.16 070 (В) 20000 м    3/0 верхняя 
[Ci fib]
+12.2 +8.7 79 +13  1017.4  -1.1  723  277           
03 22.05.16 100 (В) 20000 м    6/0 средняя, верхняя 
[Ac trans|Ci fib]
+14.2 +9.9 75 +17  1016.6  -0.4  723  275  +11.3        сухая 
06 22.05.16 120 (ЮВ) 20000 м    5/0 средняя, верхняя 
[Ac trans|Ci fib]
+18.1 +11.6 66 +23  1015.6  -0.2  723  271           
09 22.05.16 100 (В) 20000 м    3/3 600 м верхняя 
[Cu hum|Ci fib]
+21.3 +10.7 51 +24  1014.3  -0.8  722  268           
12 22.05.16 100 (В) 6{10}  20000 м    6/3 1000 м верхняя 
[Cu hum|Cc]
+23 +8.7 40 +23  1012.9  -1  721  267           
15 22.05.16 090 (В) 20000 м    4/3 1000 м средняя 
[Cu hum|Ac trans]
+21.6 +8.3 42 +22  1012  -1.1  721  268    +23.4       
18 22.05.16 070 (В) 20000 м    6/0 средняя 
[Ac trans]
+16.7 +8.5 58 +17  1012.7  -0.2  720  272           
21 22.05.16 120 (ЮВ) 20000 м    3/0 средняя 
[Ac As]
+14.6 +8.2 65 +15  1012.2  -0.8  720  274           
00 23.05.16 140 (ЮВ) 20000 м    3/0 средняя 
[Ac trans]
+12.2 +7 70 +12  1010.9  -1.7  719  276           
03 23.05.16 350 (С) 20000 м    6/0 средняя, верхняя 
[Ac trans|Ci fib]
+12.7 +7.8 72 +13  1010.7  -0.1  719  275  +10.2        сухая 
06 23.05.16 070 (В) 20000 м    10/3 1000 м средняя 
[Sc|Ac und]
+15.4 +9.2 66 +17  1009.5  -0.7  718  272           
09 23.05.16 030 (СВ) 20000 м  в посл. час ливневой дождь  10/3 1000 м кучево-дожд., средняя, верхняя 
[Cb cap|Ac As|Ci sp]
+16.7 +10.8 68 +20  1009.3  718  271           
12 23.05.16 340 (С) 20000 м  {ливн. осадки}  10/4 600 м кучево-дожд., средняя 
[Cb calv|Ac und]
+18.5 +10.9 61 +22  1008.6  -0.3  718  269           
15 23.05.16 310 (СЗ) 20000 м    10/3 1000 м средняя, верхняя 
[Sc|Ac As|Ci sp]
+17 +11.6 70 +21  1008.7  0.1  718  270    +19.5       
18 23.05.16 320 (СЗ) 20000 м  в посл. час ливневой дождь  9/4 600 м кучево-дожд., средняя 
[Cb calv|Ac trans]
+15.1 +12.6 85 +21  1009.2  0.1  718  272           
21 23.05.16 320 (СЗ) 0100 м  слаб. морось{туман}  ?/?  
+13.6 +12.8 95 +20  1009.6  0.1  718  273           
00 24.05.16 350 (С) 0200 м  туман{ливн. осадки}  ?/?  
+12.5 +11.8 95 +17  1008.2  -1.6  717  274           
03 24.05.16 250 (З) 4000 м  дымка{туман}  9/4 200 м средняя 
[St|Ac trans]
+12.4 +11.7 95 +18  1008.5  0.3  717  274  +12.3      влажная 
06 24.05.16 320 (СЗ) 20000 м  {туман}  10/5 300 м средняя 
[St|Ac und]
+14.2 +11.9 86 +19  1008.2  717  272  +12.3         
09 24.05.16 310 (СЗ) 20000 м    10/6 600 м средняя 
[Sc|Ac und]
+15.1 +11.4 79 +19  1008.6  0.5  717  272           
12 24.05.16 330 (СЗ) 20000 м  в посл. час дождь  10/6 600 м средняя 
[Sc|Ac und]
+14.9 +10.5 75 +18  1008.9  0.3  718  272           
15 24.05.16 260 (З) 20000 м    9/5 600 м кучево-дожд., средняя 
[Cb calv|Ac trans]
+15 +11.8 81 +20  1009.5  0.6  718  272    +16.2       
18 24.05.16 270 (З) 20000 м    6/3 1000 м средняя 
[Sc diur, vesp|Ac trans]
+13 +11.5 91 +17  1010.7  0.7  719  274           
21 24.05.16 260 (З) 20000 м    8/0 средняя 
[Ac trans]
+12.6 +10.4 86 +15  1010.1  -0.6  718  275           
00 25.05.16 270 (З) 20000 м    8/0 средняя 
[Ac trans]
+12.6 +10.9 89 +15  1010.2  0.1  718  275           
03 25.05.16 270 (З) 20000 м    3/0 верхняя 
[Ci fib]
+13 +10.4 84 +16  1010.2  -0.1  718  274  +11.2        влажная 
06 25.05.16 320 (СЗ) 20000 м    3/3 600 м 
[Cu hum]
+17.9 +9 56 +20  1009.1  -0.3  718  270           
09 25.05.16 340 (С) 20000 м    6/6 600 м 
[Cu hum]
+20.4 +8.5 46 +21  1007.9  -0.7  718  268           
12 25.05.16 350 (С) 20000 м    5/5 600 м 
[Cu hum]
+21.5 +8.9 44 +22  1007.6  718  266           
15 25.05.16 060 (СВ) 20000 м    8/3 1000 м верхняя 
[Cu hum|Ci fib]
+20.3 +9.6 50 +22  1007  -0.8  717  267    +22.2       
18 25.05.16 030 (СВ) 20000 м    3/0 средняя 
[Ac trans]
+16.5 +9.1 62 +18  1007.8  0.1  717  271           
21 25.05.16 080 (В) 20000 м    ясно 
+14.3 +9.6 73 +17  1007.3  -0.8  716  272           
00 26.05.16 100 (В) 20000 м    ясно 
+13.2 +9.4 78 +15  1006.4  -1  716  273           
03 26.05.16 тихо ()   20000 м    3/0 верхняя 
[Ci fib]
+15.5 +11.5 77 +20  1006.2  0.2  716  271  +9.8        сухая 
06 26.05.16 080 (В) 20000 м    8/0 средняя, верхняя 
[Ac trans|Ci fib]
+19.7 +11.1 58 +25  1005.9  0.5  716  267           
09 26.05.16 150 (ЮВ) 20000 м    8/4 600 м средняя, верхняя 
[Cu hum|Ac trans|Ci fib]
+22.9 +10.1 44 +25  1005.9  0.4  716  264           
12 26.05.16 010 (С) 20000 м    9/3 600 м средняя, верхняя 
[Cu hum|Ac trans|Ci fib]
+23.2 +8.7 40 +24  1006.1  0.2  717  265           
15 26.05.16 010 (С) 20000 м    10/6 1000 м кучево-дожд., средняя 
[Cb calv|Ac und]
+20.2 +13.1 64 +27  1007  0.4  717  266    +23.9       
18 26.05.16 320 (СЗ) 20000 м  {гроза, ливн. осадки}  10/8 1000 м кучево-дожд., средняя 
[Cb calv|Ac und]
+17.2 +13.5 79 +24  1008.9  1.3  718  269           
21 26.05.16 130 (ЮВ) 6-12{12}  20000 м  слаб. ливневой дождь  10/8 1000 м кучево-дожд., средняя 
[Cb cap|Ac und]
+15.6 +13.9 90 +23  1010.4  1.2  719  271           
00 27.05.16 360 (С) 4{12}  20000 м  слаб. ливневой дождь{гроза}  10/8 300 м кучево-дожд., средняя 
[Cb cap|Ac und]
+14.6 +13.8 95 +22  1010.1  -0.6  718  272           
03 27.05.16 330 (СЗ) 10 км  слаб. ливневой дождь  10/8 200 м кучево-дожд., средняя 
[Cb cap|Ac und]
+14.3 +13.5 95 +21  1011.4  1.2  719  273  +14    11    влажная 
06 27.05.16 040 (СВ) 20000 м  {ливн. осадки}  10/8 300 м кучево-дожд., средняя 
[Cb calv|Ac und]
+16.2 +14.2 88 +26  1012.6  1.5  720  271           
09 27.05.16 070 (В) 20000 м    10/8 300 м кучево-дожд., средняя 
[Cb calv|Ac und]
+17.6 +14.8 84 +27  1013.1  0.7  721  270           
12 27.05.16 040 (СВ) 20000 м    8/5 600 м кучево-дожд., средняя 
[Cb calv|Ac trans]
+20.3 +13.9 67 +28  1012.1  -0.5  721  267           
15 27.05.16 020 (С) 20000 м    9/4 600 м кучево-дожд., средняя 
[Cb calv|Ac trans]
+20.3 +13.4 65 +27  1012.7  0.5  721  268    +21       
18 27.05.16 350 (С) 20000 м    8/0 средняя, верхняя 
[Ac lent|Ci fib]
+17.1 +14.6 85 +27  1013.7  0.5  721  270           
21 27.05.16 350 (С) 20000 м    3/0 средняя 
[Ac trans]
+16.1 +14.4 90 +26  1013.7  -0.2  721  271           
00 28.05.16 360 (С) 20000 м    8/4 1000 м средняя 
[Sc|Ac trans]
+16.1 +12.7 80 +23  1013.1  -0.2  721  272           
03 28.05.16 010 (С) 20000 м    10/4 1000 м кучево-дожд., средняя, верхняя 
[Cb cap|Ac cast|Ci sp]
+15.6 +14.1 91 +24  1012.1  -1  720  271  +15.5        влажная 
06 28.05.16 090 (В) 20000 м    8/3 1000 м кучево-дожд., средняя 
[Cb calv|Ac trans]
+19.3 +15.1 77 +30  1010.9  -0.4  720  268           
09 28.05.16 090 (В) 7{10}  20000 м    9/5 1000 м кучево-дожд., средняя 
[Cb calv|Ac trans]
+22.5 +15.5 65 +33  1009.1  -1.2  719  264           
12 28.05.16 140 (ЮВ) 3{10}  20000 м  в посл. час гроза{ливн. осадки}  10/5 1000 м кучево-дожд., средняя 
[Cb calv|Ac und]
+21 +14.1 65 +29  1008.5  -0.8  718  266           
15 28.05.16 100 (В) 5{10}  20000 м    8/3 1000 м верхняя 
[Sc diur, vesp|Ci fib]
+20.9 +13.5 63 +28  1007.5  -1.1  717  266    +23       
18 28.05.16 070 (В) 20000 м    6/3 1000 м кучево-дожд., средняя 
[Cb calv|Ac trans]
+17.7 +13.5 76 +25  1008  717  269           
21 28.05.16 300 (СЗ) 5{13}  20000 м    8/4 600 м кучево-дожд., средняя 
[Cb calv|Ac trans]
+15.2 +11.8 80 +20  1009.7  1.1  718  272           
00 29.05.16 180 (Ю) 20000 м    8/0 средняя 
[Ac trans]
+13.8 +10.3 79 +17  1010.5  0.5  719  274           
03 29.05.16 180 (Ю) 20000 м    4/0 средняя, верхняя 
[Ac trans|Ci fib]
+15 +10.8 76 +19  1011.1  0.7  719  273  +13        сухая 
06 29.05.16 360 (С) 20000 м    8/0 средняя, верхняя 
[Ac trans|Ci fib]
+19.3 +11.9 62 +25  1009.8  -0.4  719  268           
09 29.05.16 010 (С) 20000 м    8/4 600 м верхняя 
[Cu hum|Ci fib]
+21.8 +13.5 59 +29  1009.3  719  265           
12 29.05.16 360 (С) 20000 м    9/5 1000 м кучево-дожд., средняя, верхняя 
[Cb calv|Ac trans|Ci fib]
+23.1 +14.7 59 +32  1008.9  -0.2  719  264           
15 29.05.16 240 (ЮЗ) 9-13{20}  4000 м  гроза, ливневой дождь  10/8 200 м кучево-дожд., средняя 
[Cb cap|Ac und]
+13.1 +12.3 95 +17  1012.2  1.4  720  274    +23.1  13     
18 29.05.16 320 (СЗ) 4{20}  20000 м  в посл. час гроза{ливн. осадки}  9/4 600 м кучево-дожд., средняя 
[Cb calv|Ac trans]
+15.3 +11.5 78 +19  1010.6  -1.2  719  272           
21 29.05.16 300 (СЗ) 20000 м  {ливн. осадки}  6/0 средняя 
[Ac trans]
+14.1 +10.8 81 +18  1010.7  -0.1  719  273           
00 30.05.16 290 (З) 10 км  слаб. ливневой дождь  10/5 1000 м кучево-дожд., средняя 
[Cb cap|Ac und]
+14.5 +13.3 92 +21  1010.1  -0.4  718  272           
03 30.05.16 300 (СЗ) 20000 м  слаб. ливневой дождь  10/6 300 м кучево-дожд., средняя 
[Cb calv|Ac und]
+13.9 +12.5 91 +20  1011.2  0.9  719  273  +13.2    11    влажная 
06 30.05.16 330 (СЗ) 20000 м  слаб. ливневой дождь  10/3 200 м кучево-дожд., средняя 
[Cb cap|Ac und]
+14.8 +13.1 90 +22  1011.7  0.9  720  272           
09 30.05.16 310 (СЗ) 20000 м    10/6 300 м средняя 
[Sc diur, vesp|Ac und]
+17.6 +12.8 73 +24  1011.6  0.4  720  270           
12 30.05.16 300 (СЗ) 20000 м    10/3 600 м средняя, верхняя 
[Sc|As trans|Cs]
+18.3 +12.4 68 +24  1011.4  -0.1  720  269           
18 30.05.16 260 (З) 20000 м    8/3 600 м кучево-дожд., средняя, верхняя 
[Cb calv|Ac trans|Ci fib]
+15.2 +13 87 +22  1012.8  0.4  720  272           
21 30.05.16 340 (С) 20000 м    8/0 средняя 
[Ac trans]
+15.5 +13.1 86 +24  1012.3  0.4  720  272           
00 31.05.16 350 (С) 20000 м    8/0 средняя 
[Ac lent]
+14.9 +13 88 +22  1012  -0.4  720  272           
06 31.05.16 140 (ЮВ) 20000 м    8/3 1000 м средняя 
[Sc|Ac trans]
+18.8 +14 74 +28  1012.1  0.4  720  269           
09 31.05.16 140 (ЮВ) 20000 м    8/4 600 м верхняя 
[Cu hum|Ci fib]
+21.8 +12.9 57 +28  1011.4  -0.2  720  266           
12 31.05.16 240 (ЮЗ) 20000 м    6/3 1000 м верхняя 
[Cu hum|Ci fib]
+22.1 +13 56 +28  1010.6  -0.7  720  266           
15 31.05.16 050 (СВ) 20000 м    8/3 1000 м кучево-дожд., средняя 
[Cb calv|Ac trans]
+20.4 +15 71 +30  1010.6  -0.2  720  267    +23.5       
18 31.05.16 160 (Ю) 20000 м  гроза, ливневой дождь  10/6 600 м кучево-дожд., средняя 
[Cb cap|Ac und]
+15.6 +14.1 91 +24  1012.5  720  272           
21 31.05.16 210 (ЮЗ) 20000 м  в посл. час гроза{ливн. осадки}  10/5 600 м кучево-дожд., средняя 
[Cb calv|Ac und]
+15 +13.4 90 +23  1012.3  -0.3  720  272           
00 01.06.16 260 (З) 20000 м  в посл. час гроза{ливн. осадки}  10/3 600 м кучево-дожд., средняя 
[Cb calv|Ac trans]
+14.5 +12.7 89 +21  1011.3  -1  719  273           
03 01.06.16 300 (СЗ) 20000 м    8/0 средняя 
[Ac trans]
+16.7 +13.5 81 +25  1011.1  0.2  719  270  +13.5      влажная 
06 01.06.16 330 (СЗ) 20000 м    9/4 1000 м кучево-дожд., средняя 
[Cb calv|Ac trans]
+19.3 +14.7 75 +30  1011.2  0.5  720  268           
09 01.06.16 020 (С) 20000 м  в посл. час гроза{ливн. осадки}  10/6 200 м кучево-дожд., средняя 
[Cb calv|Ac und]
+16.2 +15.3 94 +26  1011.5  -0.3  720  270           
12 01.06.16 270 (З) 20000 м  {гроза, ливн. осадки}  8/3 600 м кучево-дожд., средняя 
[Cb calv|Ac trans]
+19.2 +13.9 71 +28  1010.6  -0.3  719  268           
15 01.06.16 290 (З) 5{10}  20000 м    8/4 600 м кучево-дожд., средняя 
[Cb calv|Ac trans]
+18.7 +14.1 75 +27  1010.7  719  268    +21     
18 01.06.16 320 (СЗ) 1300 м  ливневой дождь  10/8 200 м кучево-дожд., средняя 
[Cb calv|Ac und]
+16.1 +15.3 95 +27  1011.9  0.7  720  271           
21 01.06.16 270 (З) 10 км  {гроза, ливн. осадки}  10/8 300 м кучево-дожд., средняя 
[Cb calv|Ac und]
+15.9 +15.2 96 +26  1011.4  -0.5  720  271           
00 02.06.16 270 (З) 4000 м  ливневой дождь{гроза}  10/8 200 м кучево-дожд., средняя 
[Cb calv|Ac und]
+15.6 +14.9 96 +25  1010.4  -1  719  271           
03 02.06.16 310 (СЗ) 1500 м  ливневой дождь  10/8 100 м кучево-дожд., средняя 
[Cb cap|Ac und]
+15.7 +14.8 94 +25  1010.8  0.4  719  271  +15.3    24    влажная 
06 02.06.16 340 (С) 10 км  {ливн. осадки}  10/8 300 м кучево-дожд., средняя 
[Cb calv|Ac und]
+15.9 +15.1 95 +26  1011.6  0.7  720  271           
09 02.06.16 340 (С) 10 км    10/8 200 м кучево-дожд., средняя 
[Cb calv|Ac und]
+15.7 +14.3 91 +25  1011.9  0.2  720  271           
12 02.06.16 340 (С) 20000 м    10/6 600 м кучево-дожд., средняя 
[Cb calv|Ac und]
+16.2 +13.7 85 +24  1011.9  0.1  720  271           
15 02.06.16 320 (СЗ) 20000 м    8/6 600 м кучево-дожд., средняя 
[Cb calv|Ac trans]
+17.6 +12.9 74 +24  1011.5  0.1  720  270    +18.3     
18 02.06.16 350 (С) 20000 м    10/8 600 м кучево-дожд., средняя 
[Cb calv|Ac und]
+15.2 +13.4 89 +22  1012.3  0.4  720  272           
21 02.06.16 350 (С) 20000 м    8/4 1000 м средняя 
[Sc diur, vesp|Ac trans]
+14.4 +12.8 90 +22  1011.6  -0.8  719  273           
00 03.06.16 330 (СЗ) 20000 м    5/0 средняя 
[Ac trans]
+12.6 +11.4 92 +17  1011  -1  719  275           
03 03.06.16 360 (С) 20000 м    6/0 верхняя 
[Ci fib]
+14.3 +10.2 76 +17  1010.6  719  273  +12.3        влажная 
06 03.06.16 050 (СВ) 20000 м    6/5 600 м верхняя 
[Cu hum|Ci fib]
+17 +11.3 69 +21  1010.9  0.7  719  271           
09 03.06.16 050 (СВ) 20000 м    8/6 600 м верхняя 
[Cu med, cong|Ci fib]
+18.7 +11.2 62 +23  1010.5  719  269           
12 03.06.16 050 (СВ) 20000 м    8/6 1000 м верхняя 
[Cu med, cong|Ci fib]
+19.3 +8.8 51 +20  1009.4  -1  719  269           
15 03.06.16 070 (В) 20000 м    10/6 1000 м кучево-дожд., средняя 
[Cb calv|Ac und]
+17.6 +9.6 59 +19  1009.6  0.1  718  270    +20.3       
18 03.06.16 170 (Ю) 20000 м  слаб. ливневой дождь  10/6 1000 м кучево-дожд., средняя 
[Cb cap|Ac und]
+14.2 +11.4 83 +18  1010.4  0.1  719  273           
21 03.06.16 130 (ЮВ) 20000 м  в посл. час ливневой дождь  10/4 1000 м кучево-дожд., средняя 
[Cb calv|Ac und]
+14.1 +12.3 89 +19  1008.7  -1.6  717  272           
00 04.06.16 080 (В) 20000 м  {ливн. осадки}  10/3 1000 м средняя 
[Sc diur, vesp|Ac und]
+13.5 +11.6 88 +18  1008  -0.8  717  273           
03 04.06.16 100 (В) 20000 м    10/3 1000 м средняя 
[Sc diur, vesp|Ac und]
+13.3 +10.6 84 +16  1007.7  -0.3  717  273  +13.2    0.5    влажная 
06 04.06.16 120 (ЮВ) 20000 м    10/3 600 м средняя 
[Sc|Ac und]
+15.4 +11.3 77 +19  1007.6  0.3  717  271           
09 04.06.16 140 (ЮВ) 20000 м  {ливн. осадки}  10/8 300 м кучево-дожд., средняя 
[Cb calv|Ac und]
+15.9 +14 88 +24  1007.7  0.2  717  270           
12 04.06.16 230 (ЮЗ) 20000 м  {ливн. осадки}  10/5 600 м кучево-дожд., средняя 
[Cb calv|Ac und]
+18.2 +12.7 70 +25  1007.8  0.4  717  268           
15 04.06.16 040 (СВ) 20000 м  слаб. ливневой дождь  10/8 600 м кучево-дожд., средняя 
[Cb cap|Ac und]
+15.9 +14.3 90 +25  1008.5  0.3  717  270    +19.1  0.5     
18 04.06.16 060 (СВ) 2000 м  дымка{ливн. осадки}  10/8 100 м кучево-дожд., средняя 
[Cb calv|Ac und]
+14.8 +14 95 +23  1009.5  0.7  718  272           
21 04.06.16 030 (СВ) 2000 м  дымка{ливн. осадки}  10/8 100 м кучево-дожд., средняя 
[Cb calv|Ac und]
+14.7 +13.9 95 +24  1008.9  -0.6  718  271           
00 05.06.16 050 (СВ) 0200 м  туман  ?/?  
+14 +13.3 96 +22  1009  718  272           
03 05.06.16 120 (ЮВ) 0600 м  туман{ливн. осадки}  ?/?  
+14.1 +13.4 96 +21  1009.7  0.6  718  272  +13.9      влажная 
06 05.06.16 300 (СЗ) 20000 м  {ливн. осадки, туман}  9/4 600 м кучево-дожд., средняя 
[Cb calv|Ac trans]
+16.7 +12.3 75 +22  1010  0.8  719  270           
09 05.06.16 270 (З) 7-10{10}  20000 м    8/4 600 м кучево-дожд., средняя 
[Cb calv|Ac trans]
+19.7 +13.1 66 +27  1010  0.5  719  268           
12 05.06.16 290 (З) 6-10{14}  20000 м    8/4 600 м кучево-дожд., средняя 
[Cb calv|Ac trans]
+18.4 +12.6 69 +24  1010.6  0.3  719  269           
15 05.06.16 290 (З) 4{10}  20000 м  в посл. час ливневой дождь  8/3 600 м кучево-дожд., средняя 
[Cb calv|Ac trans]
+17.3 +13.9 80 +26  1011.3  0.5  720  270    +19.7  0.8     
18 05.06.16 250 (З) 20000 м  {ливн. осадки}  3/3 1000 м средняя 
[Sc diur, vesp|Ac trans]
+13.7 +12.4 92 +19  1013.1  720  274           
21 05.06.16 300 (СЗ) 20000 м    3/0 средняя 
[Ac trans]
+14.3 +12.7 90 +20  1013.4  0.5  721  273           
00 06.06.16 290 (З) 20000 м    ясно 
+13.9 +12.9 94 +20  1012.8  -0.7  720  274           
03 06.06.16 250 (З) 10 км    3/0 средняя 
[Ac trans]
+14.8 +13.6 93 +22  1013  0.4  721  273  +13.3        влажная 
06 06.06.16 250 (З) 20000 м    3/3 600 м 
[Cu hum]
+20.1 +10.9 55 +23  1012.1  721  268           
09 06.06.16 280 (З) 20000 м    5/5 1000 м 
[Cu hum]
+22.3 +8.2 40 +22  1011.5  -0.2  720  267           
12 06.06.16 280 (З) 20000 м    4/4 1000 м 
[Cu hum]
+23.1 +9.9 43 +25  1010.3  -1  720  266           
15 06.06.16 290 (З) 20000 м    5/3 1000 м средняя 
[Cu hum|Ac trans]
+22.3 +10.2 46 +25  1010.2  -0.3  719  266    +23.7       
18 06.06.16 290 (З) 20000 м    8/3 1000 м кучево-дожд., средняя 
[Cb calv|Ac trans]
+19.2 +11.3 60 +24  1011.6  0.9  720  269           
21 06.06.16 240 (ЮЗ) 20000 м    10/6 1000 м кучево-дожд., средняя 
[Cb calv|Ac und]
+16.2 +13 81 +22  1011.4  -0.7  720  271           
00 07.06.16 290 (З) 20000 м  слаб. ливневой дождь  10/6 1000 м кучево-дожд., средняя 
[Cb calv|Ac und]
+16.1 +12.7 80 +23  1010.3  -1.1  719  271           
03 07.06.16 280 (З) 20000 м  {ливн. осадки}  4/1 1000 м верхняя 
[Sc diur, vesp|Ci fib]
+16.1 +13 82 +22  1009.8  -0.4  718  271  +15.1    0.5    влажная 
06 07.06.16 290 (З) 20000 м  {ливн. осадки}  8/4 1000 м кучево-дожд., средняя 
[Cb calv|Ac trans]
+17.7 +13.2 75 +26  1009.9  -0.4  719  269           
09 07.06.16 310 (СЗ) 20000 м  гроза без осадков  8/8 600 м кучево-дожд. 
[Cb calv]
+19.9 +13.2 65 +27  1009.3  -0.2  719  267           
12 07.06.16 330 (СЗ) 4{10}  20000 м  {гроза}  9/9 600 м кучево-дожд. 
[Cb calv]
+19.6 +11.8 61 +25  1009.5  -0.1  719  268           
15 07.06.16 360 (С) 20000 м    9/5 1000 м кучево-дожд., средняя 
[Cb calv|Ac trans]
+17.9 +11.9 68 +23  1010.3  0.5  719  270    +21.2       
18 07.06.16 350 (С) 20000 м  в посл. час ливневой дождь  9/5 1000 м кучево-дожд., средняя 
[Cb calv|Ac trans]
+14.6 +12 84 +19  1013.1  2.1  721  273           
21 07.06.16 200 (Ю) 20000 м  {ливн. осадки}  10/5 1000 м кучево-дожд., средняя 
[Cb calv|Ac und]
+12.8 +11.1 89 +17  1014.1  0.6  721  275           
00 08.06.16 330 (СЗ) 20000 м  {ливн. осадки}  6/0 средняя 
[Ac trans]
+11.6 +10.5 93 +14  1014.4  721  277           
03 08.06.16 010 (С) 20000 м    8/3 1000 м средняя 
[Sc|Ac trans]
+11.6 +10.2 91 +14  1014.7  0.2  721  277  +10.8    0.5    влажная 
06 08.06.16 070 (В) 20000 м    10/3 300 м средняя 
[St|Ac und]
+14.5 +9.4 71 +17  1014.5  0.4  722  274           
09 08.06.16 340 (С) 20000 м  слаб. ливневой дождь  10/5 600 м кучево-дожд., средняя 
[Cb cap|Ac und]
+15 +9.1 68 +16  1015  0.5  722  274           
12 08.06.16 040 (СВ) 20000 м  {ливн. осадки}  8/3 600 м кучево-дожд., средняя, верхняя 
[Cb cap|Ac As|Ci fib]
+16 +9.1 64 +17  1014.6  -0.2  722  273           
15 08.06.16 040 (СВ) 20000 м    10/4 1000 м кучево-дожд., средняя 
[Cb cap|Ac und]
+14.9 +8.6 66 +15  1015.1  0.3  722  274    +16.6  0.3     
18 08.06.16 060 (СВ) 20000 м  слаб. ливневой дождь  10/8 300 м кучево-дожд., средняя 
[Cb cap|Ac und]
+12.1 +10.3 89 +14  1016.8  1.2  723  277           
21 08.06.16 050 (СВ) 10 км  слаб. ливневой дождь  10/4 100 м кучево-дожд., средняя 
[Cb cap|Ac und]
+11.1 +10.1 94 +13  1016.6  -0.4  723  278           
00 09.06.16 080 (В) 20000 м  {ливн. осадки}  10/4 100 м средняя 
[St|Ac und]
+10.6 +9.6 94 +11  1016.1  -0.6  722  278           
03 09.06.16 070 (В) 10 км  слаб. ливневой дождь  10/8 100 м кучево-дожд., средняя 
[Cb cap|Ac und]
+10.3 +9.5 95 +11  1016.8  0.6  723  279  +10      влажная 
06 09.06.16 100 (В) 20000 м  {ливн. осадки}  10/6 300 м кучево-дожд., средняя 
[Cb calv|Ac und]
+12.8 +10.2 84 +14  1016.4  0.1  723  276           
09 09.06.16 090 (В) 20000 м    8/8 300 м кучево-дожд. 
[Cb calv]
+14.5 +9.3 71 +15  1015.5  0.1  722  275           
12 09.06.16 110 (В) 20000 м    9/5 300 м кучево-дожд., средняя 
[Cb calv|Ac trans]
+14.8 +10.2 74 +16  1015.1  -0.4  722  274           
15 09.06.16 130 (ЮВ) 20000 м    8/8 300 м кучево-дожд. 
[Cb calv]
+14 +10 77 +15  1015.5  0.2  722  275    +16.2       
18 09.06.16 100 (В) 20000 м    10/10 300 м 
[St]
+11.5 +9.7 89 +12  1016.5  0.5  722  278           
21 09.06.16 110 (В) 10 км    10/10 200 м 
[St]
+11 +9.8 92 +12  1016.3  0.5  722  278           
00 10.06.16 100 (В) 4000 м  дымка  10/10 100 м 
[St]
+11 +10.3 95 +12  1015.9  -0.4  722  278           
03 10.06.16 110 (В) 10 км    10/10 100 м 
[St]
+10.7 +9.9 95 +11  1016.3  0.3  722  278  +10.6        влажная 
06 10.06.16 110 (В) 6{10}  20000 м    10/8 200 м средняя 
[St|Ac und]
+11.7 +10.1 90 +12  1016.3  0.2  722  277           
09 10.06.16 100 (В) 7-10{10}  20000 м    10/8 300 м средняя 
[St|Ac und]
+12.9 +10.8 87 +15  1016.4  0.3  723  276           
12 10.06.16 090 (В) 6{11}  20000 м    9/5 300 м кучево-дожд., средняя 
[Cb calv|Ac trans]
+13.9 +11.4 85 +17  1016.2  723  275           
15 10.06.16 110 (В) 20000 м    10/8 300 м кучево-дожд., средняя 
[Cb calv|Ac und]
+14.3 +12 86 +19  1016.3  0.2  723  274    +14.8       
18 10.06.16 100 (В) 3000 м  ливневой дождь  10/8 100 м кучево-дожд., средняя 
[Cb cap|Ac und]
+12.3 +11.5 95 +15  1017.3  0.6  723  277           
21 10.06.16 100 (В) 10 км  {ливн. осадки}  10/8 300 м средняя 
[St|Ac und]
+12.3 +11.5 95 +16  1016.4  -0.9  723  276           
00 11.06.16 110 (В) 10 км  {ливн. осадки}  10/8 300 м средняя 
[St|Ac und]
+12.4 +11.7 95 +16  1015.6  -0.7  722  276           
03 11.06.16 130 (ЮВ) 20000 м    9/8 200 м кучево-дожд., средняя 
[Cb calv|Ac trans]
+12.3 +11.4 94 +15  1016.3  0.6  723  276  +11.6    0.5    влажная 
06 11.06.16 140 (ЮВ) 20000 м    9/5 300 м кучево-дожд., средняя 
[Cb calv|Ac trans]
+15.1 +12.2 83 +19  1016.2  0.3  723  274           
09 11.06.16 130 (ЮВ) 6{10}  20000 м    9/5 600 м кучево-дожд., средняя 
[Cb calv|Ac trans]
+18.3 +10.8 62 +21  1015.8  0.1  723  271           
12 11.06.16 110 (В) 20000 м    8/8 1000 м 
[Sc diur, vesp]
+19.3 +11.1 59 +22  1014.9  -0.6  722  270           
15 11.06.16 120 (ЮВ) 20000 м    8/8 1000 м 
[Sc diur, vesp]
+18.9 +10.9 60 +22  1015.2  0.2  723  270    +20.3       
18 11.06.16 130 (ЮВ) 20000 м    3/0 средняя 
[Ac trans]
+13.8 +11.6 87 +18  1016.8  0.6  723  275           
21 11.06.16 170 (Ю) 20000 м    ясно 
+12.2 +10.4 89 +14  1016.8  -0.2  723  277           
00 12.06.16 150 (ЮВ) 20000 м    ясно 
+12.6 +10.4 86 +14  1016.6  -0.2  723  276           
03 12.06.16 150 (ЮВ) 20000 м    ясно 
+14.1 +10.9 81 +17  1016.9  0.6  723  275  +11.7        сухая 
06 12.06.16 160 (Ю) 20000 м    4/1 600 м средняя 
[Cu hum|Ac trans]
+19.8 +11.8 60 +25  1016  0.2  723  269           
09 12.06.16 110 (В) 20000 м    8/4 600 м верхняя 
[Cu hum|Ci fib]
+21.8 +10.8 50 +25  1015.1  -0.5  723  268           
12 12.06.16 070 (В) 20000 м    8/4 600 м верхняя 
[Cu hum|Ci fib]
+23.1 +10.1 44 +25  1014.3  -0.5  722  267           
15 12.06.16 130 (ЮВ) 20000 м    8/3 600 м верхняя 
[Cu hum|Ci fib]
+22.7 +11.4 49 +27  1014  -0.4  722  266    +23.9       
18 12.06.16 120 (ЮВ) 20000 м    3/1 1000 м верхняя 
[Sc diur, vesp|Ci fib]
+17.1 +11.7 71 +22  1015.2  0.2  722  272           
21 12.06.16 130 (ЮВ) 20000 м    ясно 
+15.5 +10.3 71 +18  1014.9  -0.6  722  273           
00 13.06.16 150 (ЮВ) 20000 м    ясно 
+15 +10.1 72 +17  1014.2  -0.7  721  274           
03 13.06.16 150 (ЮВ) 20000 м    4/0 верхняя 
[Ci]
+16 +11 72 +20  1014  721  272  +13        сухая 
06 13.06.16 140 (ЮВ) 20000 м    5/0 верхняя 
[Ci]
+21.7 +10.7 50 +25  1012.4  -0.6  721  267           
09 13.06.16 130 (ЮВ) 20000 м    8/0 верхняя 
[Ci]
+24.3 +12.6 48 +30  1011  -0.8  720  264           
12 13.06.16 100 (В) 20000 м    8/3 600 м верхняя 
[Cu hum|Ci fib]
+25.1 +11.3 42 +29  1010.2  -0.7  720  263           
15 13.06.16 120 (ЮВ) 20000 м    3/0 верхняя 
[Ci fib]
+24.2 +10.9 43 +27  1010  -0.3  720  264    +25.5       
18 13.06.16 130 (ЮВ) 20000 м    ясно 
+18.1 +11.6 66 +23  1011.3  0.2  720  270           
21 13.06.16 120 (ЮВ) 20000 м    ясно 
+16.3 +10.4 68 +19  1010.7  -0.9  719  271           
00 14.06.16 140 (ЮВ) 20000 м    3/0 верхняя 
[Ci fib]
+15.2 +9.6 69 +16  1010.5  -0.5  719  273           
03 14.06.16 120 (ЮВ) 20000 м    4/0 верхняя 
[Ci fib]
+15.1 +10.6 74 +19  1009.9  -0.6  718  272  +13.8        сухая 
06 14.06.16 130 (ЮВ) 20000 м    4/0 верхняя 
[Ci fib]
+21.4 +12.9 58 +28  1008.5  -0.2  718  266           
09 14.06.16 120 (ЮВ) 20000 м    9/0 верхняя 
[Ci fib]
+25.6 +12.1 43 +31  1007.2  -0.6  718  262           
12 14.06.16 100 (В) 20000 м    ясно 
+26.1 +14.5 49 +35  1006.1  -0.9  717  261           
15 14.06.16 110 (В) 20000 м    10/0 средняя, верхняя 
[Ac trans|Ci fib]
+24.6 +16.4 60 +37  1005.6  -0.7  717  261    +26.5       
18 14.06.16 110 (В) 20000 м    9/0 средняя, верхняя 
[Ac trans|Ci fib]
+21.2 +14.5 66 +30  1006.4  0.1  717  265           
21 14.06.16 120 (ЮВ) 20000 м    9/0 средняя, верхняя 
[Ac trans|Ci fib]
+20.4 +15 71 +30  1006.1  -0.4  716  265           
00 15.06.16 220 (ЮЗ) 20000 м    8/0 средняя, верхняя 
[Ac trans|Ci fib]
+20.4 +14.8 70 +30  1006  716  265           
03 15.06.16 060 (СВ) 20000 м  в посл. час ливневой дождь  10/5 1000 м кучево-дожд., средняя 
[Cb calv|Ac und]
+20 +15.7 76 +31  1006.4  0.3  716  266  +18.6        сухая 
06 15.06.16 060 (СВ) 20000 м  {ливн. осадки}  10/4 1000 м кучево-дожд., средняя 
[Cb calv|Ac und]
+23.3 +16.3 65 +36  1005.9  0.1  717  262           
09 15.06.16 010 (С) 6{10}  20000 м    9/3 1000 м средняя 
[Sc diur, vesp|Ac trans]
+26.2 +14.2 48 +35  1005  -0.3  716  260           
12 15.06.16 060 (СВ) 6-10{11}  20000 м    8/1 600 м средняя, верхняя 
[Cu hum|Ac trans|Ci fib]
+26.1 +16.6 56 +39  1003.1  -1.8  715  259           
15 15.06.16 280 (З) 8-12{15}  10 км  гроза, ливневой дождь  10/8 300 м кучево-дожд., средняя 
[Cb cap|Ac und]
+19 +16.9 88 +33  1007.2  2.8  717  266    +26.9     
18 15.06.16 120 (ЮВ) 2{12}  20000 м  в посл. час ливневой дождь{гроза}  9/5 600 м кучево-дожд., средняя 
[Cb calv|Ac trans]
+18.3 +15.9 86 +31  1006.3  -1  716  267           
21 15.06.16 330 (СЗ) 20000 м    10/4 600 м кучево-дожд., средняя 
[Cb calv|Ac und]
+17.7 +16 90 +30  1007.5  717  268           
00 16.06.16 260 (З) 10 км    10/3 600 м кучево-дожд., средняя 
[Cb calv|Ac und]
+16.3 +15.4 94 +28  1008.1  0.3  717  269           
03 16.06.16 290 (З) 20000 м    10/4 600 м кучево-дожд., средняя 
[Cb calv|Ac und]
+17.7 +15.7 88 +29  1008.8  0.9  718  268  +16.2      влажная 
06 16.06.16 280 (З) 6{10}  20000 м  в посл. час ливневой дождь  10/3 1000 м кучево-дожд., средняя 
[Cb cap|Ac und]
+18.5 +15.4 82 +30  1010.7  719  268           
09 16.06.16 270 (З) 4{10}  20000 м  {ливн. осадки}  10/3 1000 м средняя 
[Sc|Ac und]
+19.5 +15.9 80 +31  1011.6  720  267           
12 16.06.16 310 (СЗ) 20000 м  {ливн. осадки}  6/3 600 м средняя, верхняя 
[Cu med, cong|Ac trans|Ci sp]
+23.1 +15.6 63 +34  1010.8  720  264           
15 16.06.16 330 (СЗ) 20000 м    8/4 600 м кучево-дожд., средняя, верхняя 
[Cb cap|Ac trans|Ci sp]
+23.1 +16.1 65 +35  1011.4  0.6  720  264    +23.7  0.5     
18 16.06.16 280 (З) 20000 м  гроза без осадков  8/3 600 м кучево-дожд., средняя, верхняя 
[Cb cap|Ac As|Ci ing]
+19.8 +16.1 79 +33  1013.6  1.6  722  268           
21 16.06.16 260 (З) 20000 м  {гроза, ливн. осадки}  10/3 1000 м кучево-дожд., средняя 
[Cb cap|Ac und]
+18 +15.5 85 +29  1014.9  0.9  722  270           
00 17.06.16 240 (ЮЗ) 20000 м  {гроза, ливн. осадки}  10/3 1000 м средняя 
[Sc|Ac und]
+17.7 +14.8 83 +27  1015.4  0.4  723  270           
03 17.06.16 290 (З) 20000 м    10/4 1000 м кучево-дожд., средняя 
[Cb calv|Ac und]
+18.7 +13.7 73 +27  1016.5  1.2  724  270  +17.3        сухая 
06 17.06.16 330 (СЗ) 20000 м    10/5 1000 м кучево-дожд., средняя 
[Cb calv|Ac und]
+21.4 +15.4 69 +32  1017.3  1.2  724  267           
09 17.06.16 тихо ()   20000 м    10/5 600 м кучево-дожд., средняя 
[Cb calv|Ac und]
+22.4 +15.8 66 +33  1017.7  0.6  725  267           
12 17.06.16 тихо ()   20000 м  {ливн. осадки}  9/5 600 м кучево-дожд., средняя 
[Cb calv|Ac trans]
+23.3 +16.4 65 +36  1017.6  0.1  725  266           
15 17.06.16 020 (С) 20000 м    8/4 1000 м кучево-дожд., средняя, верхняя 
[Cb calv|Ac trans|Ci fib]
+24.2 +15.7 59 +35  1017.6  -0.1  725  265    +25.2       
18 17.06.16 170 (Ю) 20000 м    5/0 верхняя 
[Ci fib]
+20.9 +16.7 77 +34  1019.5  1.2  726  268           
21 17.06.16 тихо ()   20000 м    4/3 1000 м кучево-дожд., средняя 
[Cb calv|Ac trans]
+19 +15.7 81 +30  1019.1  -0.7  725  270           
00 18.06.16 310 (СЗ) 20000 м    8/4 1000 м кучево-дожд., средняя 
[Cb calv|Ac trans]
+19 +16.5 85 +33  1019  0.1  725  270           
03 18.06.16 320 (СЗ) 20000 м    6/3 1500 м средняя 
[Sc diur, vesp|Ac trans]
+18.9 +15.5 81 +30  1020.1  726  270  +17.1        сухая 
06 18.06.16 230 (ЮЗ) 20000 м  гроза, ливневой дождь  9/6 600 м кучево-дожд., средняя 
[Cb cap|Ac trans]
+18.4 +17.6 95 +34  1020.8  0.6  727  270           
09 18.06.16 360 (С) 20000 м  в посл. час гроза{ливн. осадки}  6/4 1000 м кучево-дожд., верхняя 
[Cb calv|Ci fib]
+25.5 +15.7 55 +36  1019  -0.5  726  264           
12 18.06.16 070 (В) 20000 м  {гроза, ливн. осадки}  8/4 600 м верхняя 
[Cu med, cong|Ci fib]
+27.9 +16.9 51 +41  1017.2  -1.3  725  261           
15 18.06.16 190 (Ю) 10 км  гроза, ливневой дождь  8/5 300 м кучево-дожд., средняя 
[Cb cap|Ac trans]
+20.8 +19.2 91 +39  1018.6  0.2  725  267    +28.7  11     
18 18.06.16 360 (С) 20000 м  {гроза, ливн. осадки}  9/0 верхняя 
[Ci fib]
+22.5 +20.1 86 +43  1018.3  -0.1  725  265           
21 18.06.16 340 (С) 20000 м    6/0 верхняя 
[Ci fib]
+20.6 +18.8 89 +38  1018.1  -0.6  725  267           
00 19.06.16 тихо ()   20000 м    8/0 верхняя 
[Ci fib]
+18.2 +16.4 89 +30  1017.8  -0.7  724  270           
03 19.06.16 250 (З) 20000 м    ясно 
+21.1 +17.5 80 +36  1017.2  724  267  +17.5      влажная 
06 19.06.16 110 (В) 20000 м    ясно 
+26.1 +17.7 60 +41  1017.3  0.9  725  263           
09 19.06.16 060 (СВ) 20000 м    3/0 средняя 
[Ac trans]
+28.9 +16.3 47 +41  1016.3  -0.6  725  261           
Время (UTC), дата Ветер
(°,м/с) 
Видим.   Явления Облачность Т
(°С)
Тd
(°С)
f(%) Тe
(°С)
Pmin
(гПа)
dP
(гПа)
Po
(мм)
O2
(г/м3)
Тmin Tmax R s Состояние
почвы